[[{"header":{"parameterUnit":"m.s-1","parameterCategory":1,"la1":30.2991,"la2":30.254,"lo1":-89.0895,"lo2":-89.0444,"dy":0.0017,"dx":0.0017,"nx":28,"ny":28,"refTime":"2023-08-24T03:00:00:Z","depth":0,"parameterNumber":2,"parameterNumberName":"U-component_of_WINDS"},"data":[0,0,0,0,0,0,0,0,0,0,0,0,0,0,0,0,0,0,0,0,0,0,0,0,0,0,0,0,0,0,0,0,0,0,0,0,0,0,0,0,0,0,0,0,0,0,0,0,0,0,0,0,0,0,0,0,0,0,-1.5597,-1.5597,0,-1.5603,-1.5603,-1.5603,-1.5555,-1.5553,-1.5552,-1.5551,-1.5557,-1.5558,-1.556,0,0,0,0,0,0,0,0,0,0,0,0,0,-1.5543,-1.5544,-1.5597,-1.5597,-1.5597,-1.5603,-1.5603,-1.5603,-1.5555,-1.5553,-1.5551,-1.555,-1.5556,-1.5558,-1.556,0,0,0,0,0,0,0,0,0,0,0,0,0,-1.556,-1.5545,-1.5597,-1.5574,-1.5572,-1.5603,-1.5603,-1.5603,-1.5555,-1.5553,-1.5551,-1.5549,-1.5556,-1.5558,-1.556,-1.5614,0,0,-1.5566,-1.5567,0,0,0,0,0,0,0,0,-1.5559,-1.5562,-1.5577,-1.5575,-1.5573,-1.5576,-1.5586,-1.5607,-1.5556,-1.5561,-1.5551,-1.5548,-1.5565,-1.5566,-1.5572,-1.5614,-1.5615,-1.5567,-1.5568,-1.5569,-1.557,0,0,0,0,0,0,0,-1.5558,-1.5561,-1.56,-1.5577,-1.5575,-1.5563,-1.5563,-1.559,-1.5575,-1.5561,-1.5557,-1.5559,-1.5563,-1.557,-1.5572,-1.5615,-1.5567,-1.5569,-1.557,-1.5571,-1.5703,-1.5705,0,0,0,0,0,0,-1.556,-1.556,-1.5599,-1.56,-1.5561,-1.5566,-1.5566,-1.5577,-1.5574,-1.5572,-1.556,-1.5556,-1.5567,-1.5569,-1.5572,-1.5635,-1.5569,-1.5571,-1.5572,-1.5701,-1.5703,-1.5706,0,0,0,0,0,0,-1.5559,-1.5564,-1.5599,-1.5579,-1.5583,-1.5569,-1.5582,-1.5578,-1.5585,-1.5574,-1.5571,-1.557,-1.5566,-1.5569,-1.5604,-1.5635,-1.5572,-1.5574,-1.5698,-1.5701,-1.5704,-1.5763,0,0,0,0,0,0,-1.5557,-1.5563,-1.5584,-1.558,-1.5584,-1.5632,-1.5584,-1.558,-1.5589,-1.5583,-1.5582,-1.558,-1.5564,-1.5601,-1.5606,-1.5636,-1.5576,-1.5695,-1.5699,-1.5703,-1.5758,-1.5768,-1.5776,0,0,0,0,0,-1.5556,-1.56,-1.5585,-1.559,-1.5609,-1.5634,-1.5636,-1.5617,-1.5591,-1.5612,-1.5605,-1.558,-1.563,-1.5605,-1.561,-1.5642,-1.5693,-1.5698,-1.5703,-1.5754,-1.5766,-1.5776,0,0,0,0,0,0,-1.5608,-1.5599,-1.5583,-1.5627,-1.5632,-1.5625,-1.565,-1.563,-1.5642,-1.5636,-1.5613,-1.5613,-1.5652,-1.565,-1.5622,-1.5694,-1.5657,-1.5664,-1.5694,-1.5705,-1.5714,-1.5714,-1.5577,0,0,0,0,0,-1.5625,-1.5645,-1.5636,-1.5676,-1.5679,-1.5665,-1.5675,-1.566,-1.5663,-1.5665,-1.566,-1.5665,-1.5682,-1.5693,-1.5708,-1.5757,-1.5756,-1.5782,-1.5791,-1.5798,-1.5804,-1.583,-1.5841,-1.5722,-1.5722,-1.5722,0,0,-1.5659,-1.5657,-1.5671,-1.5687,-1.5688,-1.571,-1.5667,-1.5691,-1.5707,-1.5669,-1.5702,-1.5699,-1.5702,-1.5745,-1.5764,-1.5745,-1.5836,-1.5804,-1.581,-1.5812,-1.5836,-1.5848,-1.5858,-1.5725,-1.5725,-1.5724,0,0,-1.5734,-1.5734,-1.5768,-1.577,-1.5773,-1.5763,-1.5772,-1.5769,-1.5765,-1.5798,-1.577,-1.5788,-1.5818,-1.5822,-1.5827,-1.5904,-1.5881,-1.5909,-1.5956,-1.5982,-1.5991,-1.5999,-1.6027,-1.6037,-1.5915,-1.5915,-1.5915,0,-1.5777,-1.5808,-1.5788,-1.5814,-1.5822,-1.5788,-1.5822,-1.5826,-1.5834,-1.584,-1.5819,-1.5855,-1.5855,-1.5898,-1.5917,-1.5923,-1.5931,-1.5909,-1.5991,-1.5999,-1.6007,-1.6033,-1.6043,-1.5918,-1.5918,-1.5918,-1.5917,0,-1.5861,-1.5883,-1.591,-1.5919,-1.5929,-1.596,-1.5944,-1.5957,-1.5942,-1.5934,-1.5968,-1.5967,-1.5981,-1.599,-1.5975,-1.6032,-1.602,-1.5995,-1.5958,-1.6022,-1.6046,-1.6056,-1.5923,-1.5922,-1.5921,-1.592,0,0,-1.5968,-1.5965,-1.5976,-1.5979,-1.598,-1.5997,-1.6026,-1.604,-1.6052,-1.6059,-1.6083,-1.6109,-1.6086,-1.6093,-1.6078,-1.6101,-1.6161,-1.6073,-1.6073,-1.609,-1.6224,-1.6242,-1.6254,-1.6146,-1.6148,-1.615,-1.6224,0,-1.6041,-1.609,-1.6073,-1.6123,-1.6144,-1.6112,-1.6137,-1.6141,-1.6134,-1.6151,-1.6144,-1.6163,-1.6131,-1.6135,-1.6156,-1.615,-1.6188,-1.6144,-1.6168,-1.617,-1.6169,-1.6267,-1.6286,-1.6356,-1.6233,-1.6234,-1.6236,0,-1.6133,-1.6143,-1.6196,-1.6194,-1.6202,-1.6225,-1.6236,-1.6252,-1.6256,-1.625,-1.6257,-1.6238,-1.6266,-1.6228,-1.6267,-1.6237,-1.6246,-1.6244,-1.6247,-1.6248,-1.6207,-1.6271,-1.6378,-1.6388,-1.625,-1.6249,-1.6248,0,-1.6206,-1.6234,-1.6269,-1.6273,-1.6271,-1.6288,-1.6288,-1.6289,-1.6299,-1.6309,-1.6315,-1.6329,-1.6336,-1.6347,-1.6331,-1.6305,-1.6372,-1.6333,-1.6368,-1.6369,-1.6384,-1.6383,-1.6493,-1.6389,-1.6389,-1.6389,-1.6389,0,-1.6289,-1.6323,-1.6302,-1.6323,-1.636,-1.6339,-1.6376,-1.6372,-1.6374,-1.6394,-1.6368,-1.6387,-1.6366,-1.6383,-1.6371,-1.6405,-1.6409,-1.6405,-1.6401,-1.6407,-1.6408,-1.6413,-1.6408,-1.6392,-1.6391,-1.6391,-1.639,0,-1.6378,-1.6365,-1.6401,-1.6397,-1.6396,-1.6423,-1.642,-1.6439,-1.6431,-1.6457,-1.6462,-1.645,-1.6469,-1.6455,-1.6474,-1.6466,-1.6511,-1.65,-1.651,-1.6507,-1.6543,-1.654,-1.6661,-1.6675,-1.6562,-1.6563,-1.6564,0,-1.6432,-1.6457,-1.6455,-1.6467,-1.6469,-1.6488,-1.6498,-1.6479,-1.649,-1.6496,-1.6516,-1.6533,-1.6545,-1.6578,-1.6571,-1.6585,-1.6575,-1.6616,-1.6577,-1.6583,-1.6576,-1.6575,-1.6577,-1.6624,-1.6626,-1.6627,-1.6628,0,-1.6529,-1.6522,-1.6537,-1.655,-1.6563,-1.6572,-1.658,-1.6591,-1.6571,-1.6586,-1.6605,-1.6615,-1.6635,-1.6653,-1.6665,-1.6664,-1.6643,-1.664,-1.6649,-1.6656,-1.666,-1.6658,-1.6532,-1.6637,-1.6636,-1.6636,-1.6635,-1.6635,-1.6602,-1.6623,-1.6625,-1.6643,-1.6647,-1.6655,-1.6673,-1.6667,-1.6684,-1.6698,-1.6686,-1.671,-1.6712,-1.6726,-1.6729,-1.6747,-1.673,-1.6743,-1.6746,-1.675,-1.6755,-1.6657,-1.6749,-1.6749,-1.6749,-1.6749,-1.6748,0,-1.6699,-1.6699,-1.6715,-1.6727,-1.6741,-1.672,-1.6727,-1.674,-1.6761,-1.6766,-1.6779,-1.6802,-1.6819,-1.6813,-1.6828,-1.6844,-1.6834,-1.6848,-1.6847,-1.6847,-1.6769,-1.676,-1.6856,-1.6856,-1.6856,-1.6856,-1.6856,-1.6856,-1.675,-1.6785,-1.6778,-1.6814,-1.6813,-1.6836,-1.6842,-1.6849,-1.6853,-1.6879,-1.6893,-1.6889,-1.689,-1.6905,-1.6919,-1.6917,-1.6924,-1.6942,-1.6936,-1.6863,-1.6853,-1.6843,-1.6834,-1.6943,-1.6944,-1.7013,-1.7013,-1.7014]},{"header":{"parameterUnit":"m.s-1","parameterCategory":1,"la1":30.2991,"la2":30.254,"lo1":-89.0895,"lo2":-89.0444,"dy":0.0017,"dx":0.0017,"nx":28,"ny":28,"refTime":"2023-08-24T03:00:00:Z","depth":0,"parameterNumber":3,"parameterNumberName":"V-component_of_WINDS"},"data":[0,0,0,0,0,0,0,0,0,0,0,0,0,0,0,0,0,0,0,0,0,0,0,0,0,0,0,0,0,0,0,0,0,0,0,0,0,0,0,0,0,0,0,0,0,0,0,0,0,0,0,0,0,0,0,0,0,0,-0.5522,-0.5522,0,-0.5558,-0.5559,-0.5559,-0.5563,-0.5563,-0.5563,-0.5562,-0.5599,-0.5601,-0.5602,0,0,0,0,0,0,0,0,0,0,0,0,0,-0.5455,-0.5457,-0.5522,-0.5522,-0.5523,-0.5558,-0.5559,-0.5559,-0.5564,-0.5563,-0.5563,-0.5562,-0.5599,-0.5601,-0.5602,0,0,0,0,0,0,0,0,0,0,0,0,0,-0.5487,-0.5457,-0.5522,-0.5529,-0.553,-0.5558,-0.5559,-0.556,-0.5564,-0.5563,-0.5563,-0.5562,-0.5599,-0.56,-0.5602,-0.5626,0,0,-0.5608,-0.5609,0,0,0,0,0,0,0,0,-0.5486,-0.549,-0.5528,-0.5529,-0.553,-0.5556,-0.5549,-0.5582,-0.5564,-0.5551,-0.5562,-0.5562,-0.5585,-0.5588,-0.5596,-0.5627,-0.5629,-0.5609,-0.561,-0.5611,-0.5611,0,0,0,0,0,0,0,-0.5483,-0.5488,-0.5536,-0.5528,-0.553,-0.5531,-0.5535,-0.5555,-0.5571,-0.5552,-0.5552,-0.5557,-0.5586,-0.5595,-0.5597,-0.5629,-0.5609,-0.561,-0.5612,-0.5612,-0.5681,-0.5682,0,0,0,0,0,0,-0.548,-0.5486,-0.5535,-0.5537,-0.5506,-0.5532,-0.5537,-0.5548,-0.5571,-0.5573,-0.5557,-0.5557,-0.5591,-0.5595,-0.5599,-0.5627,-0.5611,-0.5613,-0.5614,-0.5681,-0.5681,-0.5682,0,0,0,0,0,0,-0.5478,-0.5484,-0.5534,-0.5512,-0.5518,-0.5534,-0.5547,-0.5549,-0.5558,-0.5574,-0.5577,-0.5563,-0.5591,-0.5596,-0.5619,-0.5629,-0.5613,-0.5615,-0.568,-0.5681,-0.5682,-0.5685,0,0,0,0,0,0,-0.5476,-0.5484,-0.5493,-0.5512,-0.552,-0.5553,-0.5547,-0.555,-0.5561,-0.5561,-0.5581,-0.5584,-0.5591,-0.5616,-0.5621,-0.5631,-0.5617,-0.5679,-0.568,-0.5681,-0.5684,-0.5686,-0.5688,0,0,0,0,0,-0.5474,-0.5492,-0.5493,-0.5499,-0.5531,-0.5554,-0.5558,-0.5567,-0.5562,-0.5571,-0.5582,-0.5583,-0.5627,-0.5618,-0.5624,-0.5635,-0.5679,-0.568,-0.5681,-0.5683,-0.5686,-0.5688,0,0,0,0,0,0,-0.5473,-0.5495,-0.5496,-0.5521,-0.5536,-0.5555,-0.5567,-0.5569,-0.5585,-0.5584,-0.5594,-0.5598,-0.5621,-0.563,-0.562,-0.5659,-0.5652,-0.5655,-0.5652,-0.5654,-0.5656,-0.5653,-0.5618,0,0,0,0,0,-0.5476,-0.5492,-0.551,-0.5531,-0.5538,-0.5551,-0.5561,-0.5566,-0.5582,-0.5588,-0.5601,-0.5616,-0.5633,-0.5644,-0.5661,-0.5685,-0.569,-0.5696,-0.5698,-0.5699,-0.5701,-0.5715,-0.5718,-0.5687,-0.5687,-0.5687,0,0,-0.5481,-0.5495,-0.5505,-0.5531,-0.5543,-0.556,-0.5556,-0.5574,-0.5587,-0.5591,-0.5614,-0.5623,-0.564,-0.5665,-0.5676,-0.5673,-0.5711,-0.5701,-0.5702,-0.5703,-0.5717,-0.572,-0.5722,-0.5688,-0.5688,-0.5687,0,0,-0.55,-0.5513,-0.5531,-0.5543,-0.5561,-0.557,-0.5574,-0.5593,-0.56,-0.5622,-0.5626,-0.5641,-0.567,-0.5683,-0.5693,-0.5716,-0.5718,-0.5722,-0.5731,-0.5744,-0.5747,-0.5749,-0.5758,-0.5761,-0.5724,-0.5724,-0.5724,0,-0.5505,-0.5531,-0.554,-0.5558,-0.5569,-0.5574,-0.5592,-0.5603,-0.5626,-0.5634,-0.563,-0.5667,-0.5679,-0.5706,-0.5712,-0.572,-0.5726,-0.572,-0.5746,-0.5748,-0.575,-0.5759,-0.5762,-0.5724,-0.5724,-0.5724,-0.5724,0,-0.5536,-0.5554,-0.5567,-0.5589,-0.5602,-0.562,-0.5631,-0.5643,-0.5647,-0.5656,-0.5679,-0.5693,-0.5713,-0.572,-0.5724,-0.5748,-0.5745,-0.5744,-0.5737,-0.5753,-0.5761,-0.5765,-0.5725,-0.5724,-0.5724,-0.5724,0,0,-0.5556,-0.5583,-0.5587,-0.5597,-0.5618,-0.5632,-0.565,-0.567,-0.568,-0.5695,-0.5711,-0.5736,-0.5734,-0.5746,-0.5751,-0.5763,-0.5781,-0.576,-0.576,-0.5763,-0.5808,-0.581,-0.5813,-0.5782,-0.5783,-0.5783,-0.5807,0,-0.5578,-0.5611,-0.5619,-0.5648,-0.5664,-0.5669,-0.5685,-0.5699,-0.5708,-0.5723,-0.5733,-0.575,-0.5747,-0.5754,-0.5766,-0.5776,-0.579,-0.5775,-0.5797,-0.5798,-0.5793,-0.5817,-0.5819,-0.584,-0.581,-0.5811,-0.5811,0,-0.5607,-0.5624,-0.5654,-0.5672,-0.568,-0.5694,-0.5713,-0.5728,-0.5744,-0.5749,-0.5762,-0.5766,-0.5786,-0.5778,-0.5805,-0.5794,-0.5804,-0.581,-0.5811,-0.5814,-0.5805,-0.5821,-0.5848,-0.5851,-0.5816,-0.5816,-0.5815,0,-0.5619,-0.5649,-0.5671,-0.5679,-0.5701,-0.5711,-0.5721,-0.5736,-0.5748,-0.5764,-0.5771,-0.5789,-0.5799,-0.5813,-0.5822,-0.5816,-0.5848,-0.5841,-0.5853,-0.5853,-0.586,-0.586,-0.5889,-0.5866,-0.5866,-0.5866,-0.5866,0,-0.5643,-0.5661,-0.5676,-0.569,-0.571,-0.572,-0.574,-0.5749,-0.5763,-0.5779,-0.5783,-0.5797,-0.5808,-0.5824,-0.5831,-0.5852,-0.5857,-0.5862,-0.5864,-0.5862,-0.5861,-0.5868,-0.5867,-0.5867,-0.5866,-0.5866,-0.5866,0,-0.5659,-0.567,-0.5694,-0.5713,-0.5718,-0.5733,-0.5749,-0.5762,-0.5771,-0.579,-0.5795,-0.5809,-0.5828,-0.5838,-0.5862,-0.5867,-0.589,-0.5891,-0.5885,-0.5886,-0.5897,-0.5896,-0.5933,-0.5938,-0.5911,-0.5911,-0.5911,0,-0.5674,-0.5688,-0.5708,-0.5719,-0.5729,-0.5746,-0.5758,-0.5767,-0.5779,-0.5799,-0.581,-0.5829,-0.5845,-0.5874,-0.5886,-0.5904,-0.5906,-0.5917,-0.5909,-0.5906,-0.5906,-0.5906,-0.5907,-0.5919,-0.5919,-0.5919,-0.592,0,-0.5698,-0.5703,-0.572,-0.5738,-0.5752,-0.5767,-0.5782,-0.579,-0.5802,-0.5815,-0.5835,-0.5847,-0.5871,-0.589,-0.5909,-0.5919,-0.5921,-0.5922,-0.5926,-0.5924,-0.592,-0.5923,-0.589,-0.5921,-0.5921,-0.5921,-0.5921,-0.5921,-0.5714,-0.5727,-0.5744,-0.5762,-0.5775,-0.5788,-0.5802,-0.5812,-0.5829,-0.585,-0.5854,-0.5875,-0.589,-0.5916,-0.5926,-0.5942,-0.594,-0.5946,-0.5947,-0.5948,-0.5949,-0.5917,-0.5946,-0.5946,-0.5946,-0.5946,-0.5946,0,-0.5739,-0.575,-0.5767,-0.5788,-0.5803,-0.5804,-0.582,-0.5832,-0.585,-0.5865,-0.5881,-0.5903,-0.5921,-0.5935,-0.5953,-0.5964,-0.5965,-0.5968,-0.5968,-0.597,-0.595,-0.5945,-0.5967,-0.5967,-0.5967,-0.5967,-0.5967,-0.5967,-0.5754,-0.5776,-0.5783,-0.5811,-0.5822,-0.5842,-0.5852,-0.5865,-0.5876,-0.5901,-0.5917,-0.5925,-0.5939,-0.5959,-0.5976,-0.598,-0.5986,-0.5989,-0.5993,-0.5974,-0.5972,-0.5969,-0.5965,-0.5991,-0.5991,-0.6012,-0.6012,-0.6013]}]]